{"data":{"norad_id":66323,"epoch":"2026-05-25T00:23:07.687680Z","epoch_age_seconds":76953,"freshness":"FRESH","line1":"1 66323U 25253E   26145.01606120  .00011836  00000+0  43904-3 0  9992","line2":"2 66323  43.0000 141.7964 0001427 273.0283  87.0405 15.27573601 31915","mean_motion":15.27573601,"eccentricity":0.0001427,"inclination_deg":43,"raan_deg":141.7964,"arg_perigee_deg":273.0283,"mean_anomaly_deg":87.0405,"bstar":0.00043904,"rev_number":3191,"period_min":94.267143596703,"perigee_km":482.08916302439,"apogee_km":484.04735100474,"semimajor_km":6861.2052570146,"source":"CELESTRAK","updated_at":"2026-05-25T13:38:21.167300Z"}}